Regional Weather Roundup
Issued by NWS Sioux Falls, SD

Home | Current Version | Previous Version | Text Only | Print | Product List | Glossary On
Versions: 1 2 3 4 5 6 7 8 9 10 11 12 13 14 15 16 17 18 19 20 21 22 23 24 25 26 27 28 29 30 31 32 33 34 35 36 37 38 39 40 41 42 43 44 45 46 47 48 49 50
000
ASUS43 KFSD 232102
RWRFSD

WEATHER ROUNDUP FOR SE SOUTH DAKOTA/SW MINNESOTA/NW IOWA
NATIONAL WEATHER SERVICE SIOUX FALLS SD
300 PM CST THU NOV 23 2017

NOTE: "FAIR" INDICATES FEW OR NO CLOUDS BELOW 12,000 FEET WITH NO
SIGNIFICANT WEATHER AND OR OBSTRUCTIONS TO VISIBILITY.


SDZ038>040-050-052>070-232200-
SOUTHEAST SOUTH DAKOTA

CITY           SKY/WX    TMP DP  RH WIND       PRES   REMARKS
BROOKINGS      CLOUDY    58  37  45 SW12      29.75F
CHAMBERLAIN    CLOUDY    72  46  39 SW5       29.75F
HURON          CLOUDY    59  41  51 S9        29.72F
MADISON        FAIR      57  37  47 SW14      29.77F
MITCHELL       CLOUDY    65  41  41 S8        29.76F
SIOUX FALLS    CLOUDY    59  38  45 SW12      29.79F
WINNER         FAIR      75  42  30 SW9       29.77F
YANKTON        SUNNY     70  43  37 SW10      29.79F
$$

MNZ071-072-080-081-089-090-097-098-232200-
SOUTHWEST MINNESOTA

CITY           SKY/WX    TMP DP  RH WIND       PRES   REMARKS
FAIRMONT       CLOUDY    50  31  48 S10       29.84F
JACKSON        CLOUDY    52  32  46 S13       29.82F
MARSHALL       CLOUDY    56  36  47 S9        29.75F
MONTEVIDEO     MOSUNNY   52  34  50 S5        29.74F
PIPESTONE      CLOUDY    54  34  47 SW13      29.78F
REDWOOD FALLS  CLOUDY    51  29  42 S12       29.78F
WINDOM           N/A     54  32  43 S10       29.80F
WORTHINGTON    CLOUDY    53  33  46 SW13      29.81F
$$

IAZ001>003-012>014-020>022-031-032-NEZ013-014-SDZ071-232200-
NORTHWEST IOWA

CITY           SKY/WX    TMP DP  RH WIND       PRES   REMARKS
CHEROKEE       SUNNY     56  33  42 S7        29.85F
DENISON        SUNNY     59  34  38 SW8       29.89F
ESTHERVILLE    CLOUDY    50  32  50 S10       29.84F
LE MARS        CLOUDY    59  36  41 S12       29.83F
ORANGE CITY    CLOUDY    57  37  47 S10       29.83F
SHELDON        CLOUDY    55  34  44 S10       29.81F
SIOUX CITY     CLOUDY    63  39  41 S12       29.84F
SPENCER        CLOUDY    54  32  43 SW12      29.84F
STORM LAKE     SUNNY     55  34  44 SW9       29.86F
$$

ABBREVIATIONS USED IN REMARKS
   TC - TEMPERATURE IN CELSIUS
  WCI - WIND CHILL INDEX
   HX - HEAT INDEX
  VSB - VISIBILITY




USA.gov is the U.S. government's official web portal to all federal, state and local government web resources and services.